This demonstration page uses our WeatherBlox Daily Observations layout. Learn more.

Left ArrowRight Arrow

39.08367, -84.50855

Hourly Observations for January 30, 2021

Temp ( °F °C ) Dew Point ( °F °C ) Humidity (%) Winds ( mph kmh ) Pressure ( in mb ) Visibility ( mi km ) Precip ( " mm )
12:53 am 00:53 Clear 21 -6.1 17 -8.3 85 85 Calm 30.38 1029 10 16.0934 0 0
1:53 am 01:53 Clear 19 -7.2 16 -8.9 88 88 Calm 30.37 1028 10 16.0934 0 0
2:53 am 02:53 Clear 19 -7.2 16 -8.9 88 88 NE 5 7 30.36 1028 9 14.48406 0 0
3:53 am 03:53 Clear 19 -7.2 15 -9.4 84 84 Calm 30.34 1028 9 14.48406 0 0
4:53 am 04:53 Clear 18 -7.8 15 -9.4 88 88 Calm 30.33 1027 9 14.48406 0 0
5:53 am 05:53 Clear 20 -6.7 16 -8.9 85 85 Calm 30.34 1028 10 16.0934 0 0
6:53 am 06:53 Clear 21 -6.1 17 -8.3 85 85 NNE 3 6 30.34 1027 10 16.0934 0 0
7:53 am 07:53 Sunny 23 -5 17 -8.3 78 78 NNE 5 7 30.33 1027 10 16.0934 0 0
8:53 am 08:53 Sunny 25 -3.9 19 -7.2 78 78 NNE 3 6 30.32 1027 10 16.0934 0 0
9:53 am 09:53 Sunny 30 -1.1 17 -8.3 58 58 VRB 3 6 30.3 1026 10 16.0934 0 0
10:53 am 10:53 Sunny 32 0 16 -8.9 52 52 ESE 8 13 30.27 1025 10 16.0934 0 0
11:53 am 11:53 Cloudy 33 0.6 17 -8.3 52 52 ESE 9 15 30.27 1025 10 16.0934 0 0
12:53 pm 12:53 Cloudy 34 1.1 17 -8.3 50 50 ESE 6 9 30.26 1025 10 16.0934 0 0
1:53 pm 13:53 Mostly Cloudy 35 1.7 18 -7.8 50 50 ESE 13 20 30.21 1023 10 16.0934 0 0
2:53 pm 14:53 Cloudy 37 2.8 19 -7.2 48 48 E 7 11 30.17 1022 10 16.0934 0 0
3:53 pm 15:53 Mostly Sunny 37 2.8 20 -6.7 50 50 ENE 7 11 30.14 1021 10 16.0934 0 0
4:53 pm 16:53 Mostly Cloudy 36 2.2 19 -7.2 50 50 E 7 11 30.13 1020 10 16.0934 0 0
5:53 pm 17:53 Cloudy 36 2.2 20 -6.7 52 52 SSE 3 6 30.16 1021 10 16.0934 0 0
6:48 pm 18:48 Cloudy with Light Snow 34 1 27 -3 75 75 ESE 8 13 30.16 1021 2 3.21868 0.001 0.001
6:53 pm 18:53 Cloudy with Light Snow 33 0.6 27 -2.8 78 78 SE 6 9 30.14 1021 2 3.21868 0.001 0.001
7:17 pm 19:17 Cloudy with Light Snow 33 0.6 28 -2.2 82 82 Calm 30.16 1021 3 4.82802 0.001 0.001
7:30 pm 19:30 Cloudy with Light Snow 33 0.6 28 -2.2 82 82 VRB 3 6 30.16 1021 2 3.21868 0.001 0.001
7:53 pm 19:53 Cloudy with Light Snow 32 0 29 -1.7 88 88 S 6 9 30.14 1021 2 3.21868 0.01 0.254
7:59 pm 19:59 Cloudy with Light Snow 32 0 30 -1.1 92 92 SSE 5 7 30.16 1021 0.75 1.207005 0.001 0.001
8:16 pm 20:16 Mostly Cloudy with Snow 32 0 30 -1.1 92 92 ESE 5 7 30.15 1021 0.5 0.80467 0.001 0.001
8:36 pm 20:36 Cloudy with Light Snow 32 0 30 -1.1 92 92 NE 7 11 30.1 1019 1 1.60934 0.01 0.254
8:42 pm 20:42 Cloudy with Light Snow 32 0 30 -1.1 92 92 VRB 6 9 30.1 1019 3 4.82802 0.01 0.254
8:51 pm 20:51 Cloudy with Light Wintry Mix 32 0 30 -1 93 93 NE 12 19 30.06 1018 4 6.43736 0.01 0.254
8:53 pm 20:53 Cloudy with Light Wintry Mix 32 0 30 -1.1 92 92 NE 13 20 30.04 1017 4 6.43736 0.01 0.254
9:01 pm 21:01 Cloudy with Light Wintry Mix 32 0 30 -1.1 92 92 NE 9 15 30.05 1018 6 9.65604 0.001 0.001
9:53 pm 21:53 Cloudy with Light Rain 34 1.1 31 -0.6 89 89 ESE 5 7 30.03 1017 10 16.0934 0.05 1.27
10:00 pm 22:00 Cloudy 34 1.1 31 -0.6 89 89 VRB 3 6 30.05 1017 10 16.0934 0.001 0.001
10:53 pm 22:53 Cloudy with Light Rain 34 1.1 31 -0.6 89 89 VRB 6 9 29.98 1015 6 9.65604 0.08 2.032
11:26 pm 23:26 Cloudy with Light Rain 34 1.1 32 0 92 92 ENE 5 7 29.99 1015 10 16.0934 0.06 1.524
11:53 pm 23:53 Cloudy with Light Snow 34 1.1 32 0 92 92 ESE 6 9 29.98 1015 4 6.43736 0.11 2.794

Powered by AerisWeather